Air Resources Laboratory banner image
Air Resources Laboratory web site National Oceanic and Atmospheric Administration (NOAA)

ct roundup


Office: OKX

ASUS41 KOKX 162206
RWROKX

Regional Weather Roundup
National Weather Service New York NY
600 PM EDT TUE OCT 16 2018

Note: "FAIR" indicates few or no clouds below 12,000 feet with no
significant weather and/or obstructions to visibility.

NYZ071-072-176-178-NJZ106-104-162300-
New York City Metro Area

CITY           SKY/WX    TMP DP  RH WIND       PRES   REMARKS
Central Park   FAIR      52  34  50 MISG      30.09R
Bronx Lehman C   N/A     54  32  43 W6          N/A
LaGuardia Arpt MOCLDY    56  31  38 W10       30.06R
Queens College   N/A     54  34  47 SW9         N/A
Kennedy Intl   MOCLDY    52  38  58 SW16      30.08R
Breezy Point     N/A     52 N/A N/A SW10G16     N/A
Brooklyn Coll    N/A     54  34  47 SW9         N/A
Staten Island    N/A     52  34  50 W6          N/A
Newark/Liberty MOCLDY    52  35  52 SW12      30.07R
Teterboro      FAIR      55  35  47 SW12      30.05R
$$

NYZ177-179-078>081-162300-
Long Island New York

CITY           SKY/WX    TMP DP  RH WIND       PRES   REMARKS
Jones Beach      N/A     54 N/A N/A W13G20      N/A
Wantagh          N/A     54  36  50 W9          N/A
Hempstead        N/A     54  37  54 S10       30.09S
Matinecock Pt    N/A     55 N/A N/A SW18        N/A
Farmingdale    FAIR      52  35  52 SW12      30.07R
MacArthur/ISP  MOCLDY    51  38  60 SW8       30.06R
Stony Brook      N/A     50  37  62 W1          N/A
Shirley        FAIR      52  36  54 SW6       30.06S
Mt Sinai Harb    N/A    N/A N/A N/A SW3         N/A
Westhampton    FAIR      50  36  58 SW6       30.07S
East Hampton   FAIR      49  36  59 W6        30.04S
Southold         N/A     50  37  62 SW3         N/A
Montauk          N/A     53  38  56 SW7       30.05S
$$

NYZ052-065-067-162300-
Hudson Valley

CITY           SKY/WX    TMP DP  RH WIND       PRES   REMARKS
White Plains   FAIR      49  36  61 CALM      30.04R
Larchmont Harb   N/A     54 N/A N/A SW16        N/A
Croton On Huds   N/A     54 N/A N/A SW9         N/A
Somers           N/A     48  34  57 SW3         N/A
Brewster         N/A     48  32  53 S1          N/A
Newburgh       PTCLDY    52  36  54 W6        30.03S
Montgomery     FAIR      50  34  54 SW6       30.03R
Otisville        N/A     48  32  53 W2          N/A
Warwick          N/A     50  34  53 SW5         N/A
Suffern          N/A     50  32  50 SW2         N/A
Poughkeepsie   FAIR      53  31  42 VRB3      30.01S
Albany         FAIR      53  31  42 CALM      30.00F
$$

NJZ001-105-106-008-010-013-015-019>022-104-162300-
New Jersey

CITY           SKY/WX    TMP DP  RH WIND       PRES   REMARKS
Newark/Liberty MOCLDY    52  35  52 SW12      30.07R
Teterboro      FAIR      55  35  47 SW12      30.05R
Caldwell       FAIR      52  35  52 VRB6      30.07R
Somerville     FAIR      51  37  58 SW5       30.06R
Linden         FAIR      53  33  46 W6        30.08R
Perth Amboy      N/A     52 N/A N/A SW13        N/A
Sussex         FAIR      50  35  56 SW5       30.05R
Andover          N/A     51  30  44 SW5       30.06R
Trenton        FAIR      53  36  52 W8        30.09R
Millville      FAIR      55  40  56 NW3       30.12R
Atlantic City  FAIR      57  42  57 W7        30.11R
Wrightstown    CLEAR     52  40  63 SW6       30.07
Toms River     FAIR      53  46  77 CALM      30.10R
Belmar         FAIR      51  40  65 CALM      30.10R
$$

PAZ047>061-062-071-162300-
Eastern Pennsylvania

CITY           SKY/WX    TMP DP  RH WIND       PRES   REMARKS
Philadelphia   CLOUDY    55  33  43 W10       30.10F
Allentown      FAIR      52  35  52 SW9       30.08R
Scranton       FAIR      49  33  54 SW9       30.04S
$$

CTZ002-004>006-009-010-012-RIZ004-006-007-MAZ004-011-015-162300-
Southern New England

 In CT

CITY           SKY/WX    TMP DP  RH WIND       PRES   REMARKS
Bradley Intl   FAIR      52  34  50 SW5       30.00S
Hartford       FAIR      54  34  46 SW6       30.01S
Danbury        FAIR      49  34  56 S7        30.05R
Wtrbury/Oxford FAIR      49  34  56 SW5       30.03S
Norwalk Harbor   N/A     52 N/A N/A W7          N/A
Bridgeport     FAIR      53  32  44 W8        30.05S
Meriden        FAIR      50  38  63 CALM      30.03R
New Haven      FAIR      54  34  46 W10G16    30.04R
Chester        FAIR      50  36  57 SW3       30.03R
Groton         FAIR      51  36  56 W6        30.02S
Willimantic    FAIR      52  37  56 SW3       30.01S

 In RI

CITY           SKY/WX    TMP DP  RH WIND       PRES   REMARKS
Providence     MOCLDY    53  36  52 SW7       30.01S
Block Island   FAIR      53  38  56 W12       30.03S
Westerly       FAIR      53  38  56 W3        30.03S

In MA

CITY           SKY/WX    TMP DP  RH WIND       PRES   REMARKS
Boston         FAIR      57  30  35 W15       29.98R
Worcester      FAIR      47  33  58 W8        29.98S
Westfield      FAIR      52  34  50 NW3       30.00S
Provincetown   FAIR      53  37  54 SW14G20   29.99S
Nantucket      FAIR      52  37  56 W6        30.02S
$$

ANZ330-335-338-340-345-350-353-355-162300-
Coastal Marine Observations


STATION/POSITION TIME  SKY/WX   TEMP    WIND        PRES    VSBY  WAVE
                                AIR SEA DIR/SP/G                  HT/PER
                 (UTC)          (F)     (DEG/KT/KT) (MB)    (MI)  (FT/S)
NY Harb Entrance 2140            56 67  260/ 14/ 19 1018.5
20 S Fire Island 2150            57 65  260/ 16/ 19 1018.3          2/ 7
Great South Bay  2130            54 62  250/ 14/ 17   N/A
23 SSW Montauk P 2150            55 64  250/ 16/ 21 1017.6          4/ 8
15 E Barnegat Li 2200               70                N/A           2/ 7
Hudson Canyon    2150            56     270/ 12/ 14 1019.0          4/ 6
Kings Point      2148            56 67  280/ 11/ 15 1018.9
Execution Rocks  2145               67  230/ 12/ 16   N/A
Western LI Sound NOT AVBL
Central LI Sound 2115            56 68  260/ 12/ 17   N/A           2/ 4
Robbins Reef     2148            54     240/ 12/ 16 1018.7
$$


>>>>>>>>>>>>>>>>>>>>>>>>>>>> KEY <<<<<<<<<<<<<<<<<<<<<<<<<<<
>                                                          <
>     SKY/WX - Sky Condition/Present Weather               <
>     TMP    - Temperature in Fahrenheit                   <
>     DP     - Dew Point in Fahrenheit                     <
>     RH     - Relative Humidity in Percent                <
>     WIND   - Direction (from) and Speed in MPH           <
>     PRES   - Mean Sea Level Pressure (inches of Hg)      <
>     WCI    - Wind Chill Index                            <
>     VSB    - Visibility in Miles                         <
>     HX     - Heat Index                                  <
>     TC     - Temperature in Celsius                      <
>     VRB    - Variable Wind Direction                     <
>                                                          <
>>>>>>>>>>>>>>>>>>>>>>>>>>>> KEY <<<<<<<<<<<<<<<<<<<<<<<<<<<




Office: BOX ASUS41 KBOX 162210 RWRBOX REGIONAL WEATHER ROUNDUP NATIONAL WEATHER SERVICE BOSTON/NORTON MA 600 PM EDT TUE OCT 16 2018 NOTE: "FAIR" INDICATES FEW OR NO CLOUDS BELOW 12,000 FEET WITH NO SIGNIFICANT WEATHER AND/OR OBSTRUCTIONS TO VISIBILITY. MAZALL-162300- EASTERN MASSACHUSETTS CITY SKY/WX TMP DP RH WIND PRES REMARKS BOSTON FAIR 57 30 35 W15 29.98R BEVERLY FAIR 52 32 46 W6 29.97R LAWRENCE FAIR 55 32 41 SW8 29.99R BEDFORD FAIR 52 31 44 W7 29.97R BLUE HILL N/A 50 33 52 W10 29.97R NORWOOD FAIR 54 36 50 W6 29.99R MARSHFIELD FAIR 52 37 58 SW6 29.99R PLYMOUTH FAIR 52 38 58 SW3 29.99S TAUNTON FAIR 49 38 65 SW5 29.99S NEW BEDFORD FAIR 50 41 71 SW5 29.99S $$ MAZALL-162300- CAPE COD AND THE ISLANDS CITY SKY/WX TMP DP RH WIND PRES REMARKS FALMOUTH FAIR 50 37 62 SW7 30.01S HYANNIS FAIR 51 38 60 SW8 29.99S CHATHAM FAIR 50 37 61 SW3 30.01S PROVINCETOWN FAIR 53 37 54 SW14G20 29.99S NANTUCKET FAIR 52 37 56 W6 30.02S MARTHAS VNYRD FAIR 50 40 68 SW6 30.01F $$ MAZALL-162300- CENTRAL AND WESTERN MASSACHUSETTS CITY SKY/WX TMP DP RH WIND PRES REMARKS WORCESTER FAIR 47 33 58 W8 29.98S FITCHBURG FAIR 50 31 48 W3 30.00R ORANGE FAIR 50 32 50 W6 30.00S SPRINGFIELD PTCLDY 51 33 50 W7 29.99S WESTFIELD FAIR 52 34 50 NW3 30.00S NORTH ADAMS FAIR 46 34 62 W7 29.99S PITTSFIELD FAIR 47 32 56 W3 29.98S $$ RIZALL-162300- RHODE ISLAND CITY SKY/WX TMP DP RH WIND PRES REMARKS PROVIDENCE MOCLDY 53 36 52 SW7 30.01S NEWPORT FAIR 52 36 54 CALM 30.01R BLOCK ISLAND FAIR 53 38 56 W12 30.03S SMITHFIELD FAIR 48 38 68 CALM 30.00S WESTERLY FAIR 53 38 56 W3 30.03S $$ CTZALL-162300- CONNECTICUT CITY SKY/WX TMP DP RH WIND PRES REMARKS BRADLEY INTL FAIR 52 34 50 SW5 30.00S HARTFORD FAIR 54 34 46 SW6 30.01S BRIDGEPORT FAIR 53 32 44 W8 30.05S DANBURY FAIR 49 34 56 S7 30.05R GROTON FAIR 51 36 56 W6 30.02S NEW HAVEN FAIR 54 34 46 W10G16 30.04R CHESTER FAIR 50 36 57 SW3 30.03R MERIDEN FAIR 50 38 63 CALM 30.03R WILLIMANTIC FAIR 52 37 56 SW3 30.01S OXFORD FAIR 49 34 56 SW5 30.03S $$ MEZ002-015-021-024-NHZ003-005-008-011-012-014-VTZ005-008-162300- NORTHERN NEW ENGLAND CITY SKY/WX TMP DP RH WIND PRES REMARKS PORTLAND ME FAIR 53 28 38 W12 29.94R BANGOR ME FAIR 47 27 45 NW6 29.90R CONCORD NH FAIR 50 32 50 W8 29.95S MANCHESTER NH FAIR 53 32 44 W8 29.95S NASHUA NH FAIR 50 34 54 CALM 29.99R PORTSMOUTH NH PTCLDY 52 32 46 W6 29.94 JAFFREY NH FAIR 48 32 53 W6 29.98R KEENE NH FAIR 49 32 52 CALM 29.99R BURLINGTON VT MOCLDY 50 31 48 W8 29.94F MT. WASHINGTON FOG 19 19 100 W49 N/A VSB 1/8 WCI -3 $$ NYZ052-076-162300- EASTERN NEW YORK CITY SKY/WX TMP DP RH WIND PRES REMARKS ALBANY FAIR 53 31 42 CALM 30.00F NEW YORK CITY MOCLDY 56 31 38 W10 30.06R $$ ANZALL-162300- MARINE OBSERVATIONS STATION/POSITION TIME TEMP WIND PRES VSBY WAVE AIR SEA DIR/SP/G HT/PER (UTC) (F) (DEG/KT/KT) (MB) (MI) (FT/S) BOSTON BUOY 2150 56 59 250/ 16/ 19 1014.1S 2/ 3 BUZZARDS BAY 2200 54 250/ 16/ 18 1016.6S NANTUCKET SOUND 2150 55 63 250/ 14/ 19 1016.1F MASS BAY-STELLWA 2104 56 58 260/ 14/ 17 1013.2F 1 7/8 2/ 3 ISLE OF SHOALS 2200 55 250/ 13/ 14 1013.9R S OF BLOCK IS 2143 63 N/A 5/ 8 $$ ......................KEY......................... SKY/WX - SKY CONDITION/PRESENT WEATHER TMP - TEMPERATURE IN FAHRENHEIT DWPT - DEWPOINT IN FAHRENHEIT RH - RELATIVE HUMIDITY IN PERCENT WIND - DIRECTION AND SPEED IN MPH PRES - MEAN SEA LEVEL PRESSURE IN INCHES OF HG WCI - WIND CHILL INDEX VSB - VISIBILITY IN MILES HX - HEAT INDEX TC - TEMPERATURE IN CELSIUS VRB - VARIABLE WIND DIRECTION N/A - NOT AVAILABLE